Flag Weather past 2 weeks in Nagoya, Japan

Now
55 °F

Passing clouds.


Feels Like: 54 °F
Forecast: 45 / 66 °F
Wind: 6 mph from Northeast

Location: Nagoya Airport

Current Time: Nov 23, 2014 at 11:49:46 PM

Latest Report: Nov 23, 2014 at 11:30 PM


Visibility: N/A

Pressure: 30.21 "Hg

Humidity: 55%

Dew point: 39 °F

Location of NagoyaLocation

Historic Weather in Nagoya — Graph

°F

Nagoya temperature yesterday

Maximum temperature yesterday: 64 °F (at 2:00 PM)
Minimum temperature yesterday: 48 °F (at 3:00 AM)
Average temperature yesterday: 57 °F

Past Weeks' High & Low Weather Summary

 TemperatureHumidityPressure
High68 °F (Nov 10, 12:30 PM)100% (Nov 9, 3:00 PM)30.33 "Hg (Nov 9, 3:00 PM)
Low45 °F (Nov 21, 3:00 AM)31% (Nov 19, 12:00 PM)29.71 "Hg (Nov 12, 12:30 PM)
Average57 °F63%30.11 "Hg
* Reported Nov 8 10:00 PM — Nov 23 10:30 PM, Nagoya, Weather by CustomWeather, © 2014

Note: Actual official high and low records may vary slightly from our data, if they occured in-between our weather recording intervals... More about our weather records

Advertising

Nagoya weather history for previous 24 hours

 ConditionsComfort  
Time TempWeatherWind HumidityBarometerVisibility
10:30 PM
Nov 23
59 °FPassing clouds.10 mph55%30.21 "HgN/A
10:00 PM59 °FPassing clouds.16 mph55%30.21 "HgN/A
9:30 PM59 °FPassing clouds.14 mph55%30.21 "HgN/A
9:00 PM59 °FPassing clouds.10 mph59%30.21 "HgN/A
8:30 PM59 °FPassing clouds.10 mph59%30.21 "HgN/A
8:00 PM61 °FPassing clouds.12 mph59%30.18 "HgN/A
7:30 PM61 °FPassing clouds.15 mph59%30.18 "HgN/A
7:00 PM61 °FPassing clouds.14 mph59%30.18 "HgN/A
6:30 PM61 °FPassing clouds.15 mph63%30.18 "HgN/A
6:00 PM61 °FPassing clouds.16 mph59%30.18 "HgN/A
5:30 PM63 °FPassing clouds.20 mph59%30.15 "HgN/A
5:00 PM63 °FPassing clouds.21 mph56%30.15 "HgN/A
4:30 PM64 °FPartly sunny.21 mph56%30.15 "HgN/A
4:00 PM64 °FPartly sunny.21 mph52%30.15 "HgN/A
3:30 PM64 °FScattered clouds.22 mph56%30.12 "HgN/A
3:00 PM66 °FPassing clouds.21 mph52%30.12 "HgN/A
2:30 PM66 °FScattered clouds.12 mph52%30.12 "HgN/A
2:00 PM66 °FScattered clouds.7 mph56%30.12 "HgN/A
1:30 PM66 °FPassing clouds.9 mph46%30.12 "HgN/A
1:00 PM68 °FPassing clouds.12 mph40%30.12 "HgN/A
12:30 PM66 °FPassing clouds.14 mph46%30.12 "HgN/A
12:00 PM64 °FPassing clouds.9 mph64%30.15 "HgN/A
11:30 AM63 °FPassing clouds.8 mph64%30.15 "HgN/A
11:00 AM61 °FPassing clouds.8 mph63%30.15 "HgN/A
10:30 AM59 °FPassing clouds.12 mph68%30.18 "HgN/A
10:00 AM59 °FPassing clouds.12 mph72%30.18 "HgN/A
9:30 AM57 °FPassing clouds.10 mph63%30.18 "HgN/A
9:00 AM57 °FPassing clouds.10 mph59%30.18 "HgN/A
8:30 AM55 °FPassing clouds.12 mph67%30.18 "HgN/A
8:00 AM55 °FPassing clouds.12 mph67%30.18 "HgN/A
7:30 AM54 °FPassing clouds.12 mph72%30.18 "HgN/A
7:00 AM50 °FPassing clouds.12 mph82%30.18 "HgN/A
6:30 AM50 °FPassing clouds.8 mph88%30.15 "HgN/A
6:00 AM50 °FPassing clouds.9 mph82%30.15 "HgN/A
5:30 AM50 °FPassing clouds.9 mph82%30.15 "HgN/A
5:00 AM50 °FPassing clouds.5 mph88%30.15 "HgN/A
4:30 AM50 °FPassing clouds.8 mph82%30.15 "HgN/A
4:00 AM55 °FPassing clouds.7 mph72%30.15 "HgN/A
3:30 AM57 °FPassing clouds.8 mph67%30.15 "HgN/A
3:00 AM57 °FPassing clouds.8 mph67%30.15 "HgN/A
2:30 AM55 °FPassing clouds.6 mph72%30.15 "HgN/A
2:00 AM52 °FPassing clouds.6 mph82%30.15 "HgN/A
1:30 AM54 °FPassing clouds.9 mph77%30.15 "HgN/A
1:00 AM57 °FPassing clouds.12 mph67%30.15 "HgN/A
12:30 AM57 °FPassing clouds.13 mph67%30.15 "HgN/A
12:00 AM55 °FPassing clouds.13 mph63%30.15 "HgN/A
11:30 PM
Nov 22
59 °FPassing clouds.13 mph63%30.15 "HgN/A
11:00 PM55 °FPassing clouds.10 mph67%30.15 "HgN/A
Weather by CustomWeather, © 2014

See weather overviewHow to use our weather pages